Theta_e
345 347 347 347 349 349 350 351 351 351 350 350 350 350 350 350 350 350 349 349 348 347 347 347 347 347 349 347 347 347 347 347 346 346 345 345 344 342 342 341 342 345 345 345 345 344 344 343 342 343 344 344 345 339 340 337 337 336 334 334 334 333
344 345 343 344 344 348 349 349 349 349 349 350 350 349 349 349 350 349 349 348 347 346 346 347 347 348 346 346 347 347 347 346 345 346 345 344 343 342 341 342 341 343 345 344 344 342 342 343 343 343 344 345 342 339 346 336 336 335 334 333 334 336
343 342 339 342 343 347 347 347 348 348 348 349 348 348 348 348 346 347 347 346 349 348 347 347 346 346 346 346 346 347 346 345 345 344 344 343 342 341 341 340 342 342 344 344 342 343 341 340 341 343 344 340 339 342 343 340 336 335 334 333 332 336
343 344 342 343 344 346 346 344 346 346 348 348 348 347 346 346 345 345 345 347 350 350 350 350 346 346 347 345 346 346 346 345 344 344 344 341 342 341 341 340 340 341 340 341 338 342 342 341 341 342 341 341 342 344 340 338 335 335 334 334 333 340
345 345 344 343 344 344 344 343 344 344 346 345 346 345 345 345 346 347 347 350 347 346 348 347 346 345 344 344 343 343 343 343 343 342 343 339 337 337 339 337 336 336 336 337 338 341 341 341 343 341 341 342 344 340 338 336 336 335 334 334 335 341
345 345 345 343 343 345 345 342 341 342 342 343 343 344 346 346 346 348 349 348 347 349 348 345 344 344 343 343 342 342 342 342 341 341 341 338 336 336 335 335 333 333 334 337 340 340 341 342 340 342 340 345 343 335 333 338 337 335 334 334 335 337
344 345 344 345 346 346 345 343 342 342 342 341 345 345 345 345 346 347 346 346 346 345 346 345 342 341 343 344 342 343 343 342 342 341 339 339 336 336 334 335 336 335 336 338 336 336 340 341 340 338 341 343 337 334 335 340 342 335 334 333 336 339
344 345 345 348 348 345 344 342 340 343 345 347 344 343 344 343 343 346 345 344 346 344 344 342 343 341 342 342 341 341 342 340 339 340 340 342 336 335 333 338 338 336 334 335 336 336 335 335 336 338 341 336 336 338 339 341 342 336 335 334 335 337
344 344 345 347 347 345 345 344 344 344 345 346 344 343 344 344 343 344 344 343 343 341 341 341 339 343 340 340 339 339 339 338 339 338 340 340 336 336 336 338 336 335 336 338 339 336 335 335 337 342 340 334 335 338 337 342 341 338 336 336 336 338
344 344 344 345 345 344 344 342 341 341 345 346 344 345 344 344 344 342 343 342 342 342 341 340 341 342 346 348 343 344 341 342 338 343 344 341 341 340 338 337 338 336 334 339 337 340 338 337 334 336 337 335 337 338 339 340 342 338 337 337 337 339
344 343 344 344 345 343 345 342 343 342 344 343 344 345 344 344 343 343 343 342 342 342 340 340 340 340 339 339 339 341 339 339 340 342 344 343 341 341 343 344 343 345 343 337 341 344 338 342 338 335 333 335 336 336 337 339 341 341 337 337 337 338
343 343 344 343 343 343 344 342 343 344 343 345 344 344 344 344 344 343 342 342 342 341 340 340 339 339 338 336 334 342 344 343 343 344 345 343 343 345 344 345 346 346 347 347 343 342 338 345 339 332 337 335 336 337 339 338 340 342 337 337 337 337
344 343 344 344 344 345 344 342 341 343 344 345 344 344 343 343 343 341 341 340 341 342 341 339 340 339 337 336 338 344 343 343 344 345 346 346 346 345 345 346 345 347 345 348 344 338 342 341 335 333 334 335 336 336 339 338 338 340 338 337 336 336
345 344 345 345 345 344 344 341 341 343 345 344 344 343 343 343 343 342 341 341 340 342 342 342 341 339 338 336 336 337 336 336 338 340 342 346 342 345 343 343 342 340 340 340 340 341 341 340 335 334 334 336 336 336 338 339 338 338 338 336 336 335
344 344 343 345 345 342 346 341 342 343 344 344 343 343 342 342 343 342 340 340 341 339 341 341 340 338 339 338 337 338 336 338 339 341 342 346 348 343 344 341 339 336 339 341 340 339 338 336 333 332 333 334 335 337 338 338 337 337 337 338 337 336
344 341 339 343 341 341 341 343 342 342 342 342 342 341 341 341 342 341 339 338 339 340 341 339 340 339 335 340 339 340 339 340 343 345 345 348 347 343 340 344 343 344 339 338 338 337 338 334 332 330 332 334 335 335 337 338 336 336 336 337 336 336
341 340 340 339 341 340 343 342 341 341 339 340 339 339 340 340 342 340 341 338 339 339 340 339 339 336 336 340 341 340 341 340 342 344 342 342 343 343 341 342 345 344 341 337 335 333 334 335 332 331 331 332 335 336 336 335 336 336 338 337 336 336
342 342 340 339 337 339 343 343 340 340 339 338 340 340 340 340 339 341 342 340 340 340 339 337 339 339 339 342 341 340 338 340 341 342 340 338 341 342 343 343 342 342 342 342 336 334 334 334 332 332 333 334 334 336 336 334 336 336 335 336 336 334
343 339 339 339 340 340 341 342 341 339 338 337 338 340 341 339 340 341 340 339 340 339 338 338 338 340 340 340 340 340 339 338 341 341 339 338 341 342 343 343 342 340 343 337 339 337 336 334 331 332 331 333 334 335 335 337 336 334 334 334 336 336
342 340 341 339 337 338 339 339 337 336 336 338 336 336 340 340 342 341 341 340 340 342 339 337 339 339 340 340 339 338 338 339 339 339 338 338 335 342 341 341 339 339 338 337 338 338 335 334 333 331 329 329 332 333 334 335 335 334 333 333 333 335
340 342 340 336 336 335 335 334 338 333 333 335 337 338 338 338 339 342 338 338 339 338 338 336 339 337 338 341 339 338 339 340 340 338 338 339 343 340 341 341 338 342 337 335 333 337 337 334 331 328 330 331 331 333 332 334 334 334 334 333 332 333
339 339 339 337 337 336 335 337 336 335 334 336 335 337 336 338 340 340 338 341 340 337 337 337 339 338 339 340 339 338 340 342 339 338 337 341 342 341 341 341 339 336 339 334 334 336 335 333 328 325 324 324 327 329 332 332 332 333 334 332 331 331
338 338 338 337 336 335 336 336 334 332 335 334 338 338 336 337 340 339 342 342 341 337 339 337 336 337 338 339 341 341 340 342 341 341 342 341 340 339 340 340 340 336 333 335 334 337 336 335 326 328 328 323 320 320 323 327 330 332 333 331 332 332
338 339 339 339 339 339 336 335 334 336 337 338 335 337 337 338 340 340 339 339 339 338 339 337 336 336 339 338 337 340 340 339 341 341 341 339 340 338 340 339 340 338 335 329 330 333 337 335 331 326 320 321 321 321 317 320 322 327 331 331 332 332
339 340 340 339 339 337 335 334 335 336 335 335 337 336 335 334 338 338 338 337 338 337 337 338 337 335 335 337 339 341 342 341 341 342 340 339 337 337 338 339 339 337 336 335 329 332 334 335 333 334 327 321 317 316 317 321 322 322 328 327 329 331
339 339 337 338 337 333 331 332 334 332 330 330 330 330 328 330 332 334 336 338 339 337 336 338 338 338 336 340 341 342 341 340 340 341 340 338 338 336 337 336 338 337 336 335 332 330 329 334 335 334 333 332 329 320 319 322 322 315 325 327 327 328
337 336 337 337 335 335 332 331 333 333 334 330 330 334 337 336 335 336 338 337 336 336 335 335 339 339 341 342 341 342 342 340 340 340 338 338 337 337 335 334 335 337 337 335 334 329 328 330 333 334 334 334 332 331 329 321 318 320 316 322 326 326
334 334 337 337 336 335 332 332 330 332 332 333 330 331 334 336 337 336 335 335 334 334 334 335 340 338 340 341 342 342 341 343 339 338 337 337 337 337 337 335 337 336 338 335 335 332 329 328 328 329 332 330 331 333 331 327 327 323 319 316 319 326
332 332 334 337 335 334 334 333 331 330 329 331 333 334 335 335 332 335 335 335 334 334 335 337 340 342 338 338 339 340 341 341 341 339 336 337 336 337 337 337 337 337 336 336 336 335 333 330 330 329 330 330 330 330 329 328 326 327 321 318 317 319
331 331 332 334 335 334 334 332 331 330 328 329 333 334 335 333 333 336 335 335 336 336 337 339 340 339 339 336 338 338 338 338 340 340 337 340 336 337 337 338 338 338 337 335 335 335 333 332 332 332 333 333 329 327 327 325 327 326 323 323 317 317
330 332 332 332 333 334 334 334 333 331 330 330 333 333 333 333 335 336 334 334 336 337 336 338 339 340 340 337 339 339 339 337 338 337 335 338 339 338 339 339 338 338 338 334 333 333 334 333 333 333 332 332 330 327 323 321 324 324 323 320 319 320
332 334 334 334 333 333 333 334 335 334 333 333 334 332 332 333 333 333 335 333 336 337 334 337 339 338 342 338 341 339 339 339 337 340 337 337 336 337 339 339 340 339 337 336 336 335 333 332 333 332 331 332 330 329 328 326 326 328 326 322 322 319
333 334 334 334 333 332 333 332 333 334 335 334 334 333 334 333 333 333 334 333 333 332 333 334 335 336 338 339 339 337 338 337 336 338 337 335 336 336 338 339 338 335 336 335 335 335 333 332 332 330 331 333 332 330 329 330 330 327 328 327 323 318
331 334 333 332 332 331 332 333 334 334 335 334 333 333 332 333 333 334 333 332 332 332 332 333 335 335 336 336 337 338 339 337 336 337 338 337 335 335 337 336 338 336 335 336 336 335 334 334 334 333 334 332 334 332 331 332 331 329 328 327 324 321
330 332 332 331 331 331 332 335 335 335 335 334 333 332 332 334 332 331 332 333 334 334 332 332 335 336 335 338 336 338 337 335 337 336 336 337 336 336 332 332 337 335 336 336 336 335 334 334 334 334 333 332 332 332 332 330 330 330 331 331 327 325
330 331 331 331 331 332 332 333 335 335 335 334 333 333 332 331 332 332 333 334 335 334 334 334 335 334 336 335 334 334 335 335 336 336 335 335 334 333 336 335 333 336 337 335 335 335 334 335 333 333 333 333 332 330 331 330 330 330 328 328 329 329
331 331 331 330 330 333 333 333 334 335 334 334 332 331 330 330 331 332 336 334 335 334 334 334 334 334 336 334 334 332 333 333 336 336 336 336 335 333 334 337 333 335 331 331 332 333 333 333 333 333 333 332 332 331 331 331 330 331 332 331 329 329
Wind_Speed
13 12 10 8 8 8 10 12 10 11 12 12 11 12 12 12 10 11 12 11 10 8 7 7 8 8 12 8 8 11 12 12 10 11 10 8 7 6 6 6 6 6 6 8 8 7 4 3 4 6 8 9 11 6 6 6 10 9 8 7 7 6
13 16 15 11 9 8 9 10 9 9 9 10 11 11 10 9 10 8 10 9 6 6 6 6 7 9 6 9 9 12 11 11 10 10 9 8 7 5 5 5 5 5 6 7 8 4 2 3 4 6 7 8 6 5 2 9 9 8 8 7 6 7
6 6 12 11 10 9 10 7 9 9 9 10 10 10 8 8 7 7 8 7 5 3 4 6 5 8 6 10 10 12 13 12 10 9 8 7 6 5 4 4 4 5 5 6 5 4 4 3 2 5 6 5 4 5 0 5 9 8 8 6 6 9
11 9 7 6 11 10 9 8 8 8 7 8 8 8 7 7 6 6 6 4 2 1 1 3 9 12 11 7 8 9 12 12 11 9 8 6 5 4 3 2 4 4 4 4 5 6 5 3 3 2 2 4 5 0 2 4 7 8 6 8 7 8
10 10 9 8 10 11 11 9 8 8 8 7 7 6 6 5 3 3 3 3 3 2 1 3 4 5 6 6 6 6 6 6 6 5 7 3 4 5 3 3 2 2 3 3 4 2 2 4 4 4 4 4 3 3 8 5 9 7 6 6 5 7
11 10 9 11 11 11 11 9 9 8 8 7 7 5 4 5 3 3 2 3 2 1 1 2 5 6 5 6 7 6 6 6 6 6 6 5 5 3 4 4 5 4 4 5 2 2 1 1 3 2 3 1 2 10 5 3 8 7 7 5 6 10
10 9 10 9 8 9 9 8 7 8 8 7 6 6 6 5 4 4 3 3 2 1 1 0 3 4 6 6 7 6 6 6 5 6 7 5 6 6 5 5 4 4 3 3 3 3 2 1 2 2 2 1 12 1 3 3 5 7 7 6 5 8
11 8 7 5 8 9 9 9 8 7 6 6 8 6 6 5 4 3 4 3 1 1 1 1 2 4 5 5 5 7 6 7 7 6 7 6 6 6 6 3 2 3 4 4 6 4 3 3 4 3 3 13 6 1 3 3 3 8 7 6 5 5
10 8 6 5 6 7 9 8 9 9 8 9 6 6 6 7 5 4 3 3 2 2 1 1 1 2 5 5 5 6 7 6 5 6 7 7 5 5 4 3 3 4 5 4 1 3 5 3 2 3 7 13 2 1 3 2 2 7 7 6 5 6
10 8 7 4 4 6 5 7 9 9 8 7 6 6 8 6 6 5 4 4 3 2 2 1 2 4 1 2 3 2 3 2 3 2 2 2 2 3 4 5 4 5 3 0 3 1 1 1 2 1 12 9 4 3 3 4 2 4 6 5 6 5
10 10 8 7 5 3 3 5 7 7 7 7 7 6 6 7 6 5 4 4 4 2 2 0 2 3 4 3 4 4 4 5 4 2 2 2 3 3 2 1 1 1 1 3 1 1 2 1 1 11 10 8 4 2 6 0 1 4 4 6 5 5
11 10 9 9 8 7 6 6 7 6 6 7 8 6 6 6 6 5 6 4 3 4 3 1 0 1 2 2 9 3 2 2 2 2 0 2 1 1 2 0 2 1 1 0 1 2 4 1 4 12 9 7 4 3 4 2 1 1 6 6 5 5
10 10 9 10 9 7 6 7 7 5 6 7 6 6 6 6 5 5 5 4 3 4 3 2 1 2 2 3 11 2 1 2 2 1 1 2 2 0 2 1 2 1 2 1 1 3 2 1 8 10 8 4 5 6 4 1 2 2 5 6 5 5
10 10 11 8 7 6 7 7 7 6 6 6 6 6 6 5 5 4 5 4 4 2 3 2 1 3 5 4 7 7 6 5 3 6 6 2 4 2 2 2 2 1 3 2 1 1 1 2 11 9 6 4 1 5 4 3 3 3 4 5 5 5
7 10 8 5 7 5 3 7 7 7 6 6 7 6 6 6 5 4 3 3 2 2 2 2 2 7 4 4 4 3 2 4 3 5 7 2 1 2 1 2 3 3 2 0 2 2 1 4 7 12 9 3 2 5 3 4 4 3 3 3 4 4
9 7 9 7 3 2 3 5 6 7 6 7 7 7 6 6 5 4 2 2 2 3 3 3 3 5 2 2 3 4 3 3 3 0 2 2 1 2 3 1 2 2 2 1 2 0 2 4 9 11 5 2 3 4 4 3 3 3 3 4 4 4
8 8 9 7 7 7 6 5 7 6 5 7 7 5 5 5 5 4 3 3 3 4 4 4 2 5 7 5 4 3 3 3 1 1 2 3 2 1 2 2 0 1 0 1 1 3 0 5 8 10 8 4 2 3 4 2 4 3 3 3 4 4
7 6 7 8 8 7 5 5 6 6 5 6 6 5 4 5 4 4 4 3 2 5 6 3 4 5 7 4 4 3 3 2 2 1 2 3 2 2 2 2 1 1 1 1 2 1 2 4 9 7 5 4 6 3 4 3 4 4 4 3 4 4
8 8 7 6 7 5 4 4 6 7 5 6 6 4 5 5 5 3 4 4 4 6 7 6 5 5 5 4 3 1 3 2 2 2 3 4 1 1 1 2 0 1 1 2 2 3 3 6 7 7 5 2 5 3 3 3 4 4 4 3 4 5
7 7 8 8 5 5 5 4 5 6 5 3 4 3 3 5 4 4 4 4 2 5 4 5 6 4 6 5 3 4 4 5 3 1 2 2 5 1 2 2 1 2 2 2 1 2 2 6 9 9 4 6 4 1 3 3 4 4 3 3 4 3
7 6 6 6 6 5 6 5 3 4 4 4 3 4 4 3 2 1 4 5 5 6 4 4 6 7 9 6 5 4 4 4 4 4 3 2 2 2 2 2 3 0 2 2 3 2 3 6 8 6 4 5 5 4 2 3 4 5 4 3 4 3
7 7 6 5 4 4 2 2 3 4 5 5 4 3 3 2 2 2 3 3 6 8 6 4 0 5 7 6 5 5 4 4 6 5 5 3 2 2 3 2 2 2 0 1 2 3 4 3 3 4 4 2 4 4 4 4 4 3 3 5 3 2
8 6 5 5 4 3 2 4 7 4 2 5 5 5 5 2 1 4 3 2 4 6 4 2 5 7 4 5 5 5 5 3 2 2 2 1 4 3 2 2 2 2 2 2 2 4 3 1 6 4 3 4 2 4 2 3 3 4 4 5 2 2
8 8 8 6 4 5 7 10 7 4 3 5 4 5 6 3 2 2 4 2 2 7 7 7 5 6 3 4 6 5 2 4 2 3 3 2 2 3 1 1 1 0 2 4 2 2 2 3 4 6 3 1 1 1 4 3 3 3 6 5 4 3
7 7 7 7 7 8 8 8 6 5 6 5 4 4 4 4 1 2 3 3 2 3 5 7 9 9 8 8 8 4 5 4 4 3 3 3 3 3 2 1 1 1 1 1 5 2 2 2 3 2 4 3 2 1 1 4 5 4 4 2 2 2
6 7 8 8 9 9 7 7 4 4 6 4 4 5 5 6 4 4 4 3 4 5 4 4 8 12 9 8 6 4 4 5 4 4 4 3 2 4 3 2 1 2 2 3 3 4 2 1 2 4 2 1 1 3 4 4 2 4 2 2 3 2
7 7 9 9 8 8 9 8 7 7 6 7 3 2 3 7 7 4 1 2 4 3 4 3 5 3 4 4 2 2 3 4 5 4 5 4 3 3 3 3 4 2 2 4 3 2 4 3 2 2 4 2 3 1 3 6 2 5 5 2 4 3
5 7 8 10 10 9 8 9 9 8 7 8 10 7 5 4 4 4 3 4 2 3 2 3 4 3 5 7 4 3 2 2 4 4 4 4 4 3 4 3 3 3 3 4 3 2 4 4 3 3 4 2 2 2 3 5 4 3 5 6 3 2
6 5 6 7 9 9 8 7 7 7 8 5 6 5 4 4 4 4 5 3 3 3 3 4 2 2 3 5 5 4 3 3 2 3 3 4 4 4 3 2 2 3 4 3 4 3 3 2 2 2 2 2 3 2 3 5 4 2 3 4 5 5
11 8 9 9 8 10 9 8 8 9 10 8 6 5 4 5 4 4 4 4 4 4 3 3 3 3 3 4 3 4 4 4 3 2 3 1 3 3 5 3 3 2 4 4 3 2 3 3 2 2 1 3 2 3 3 2 1 2 4 2 5 7
12 10 12 12 9 9 9 10 10 11 10 11 11 9 6 6 4 4 4 4 4 4 4 4 4 3 3 4 4 3 3 4 3 4 3 3 2 2 3 2 2 4 3 5 3 2 2 3 2 2 2 2 4 3 3 2 3 2 3 3 3 5
11 11 11 10 11 9 8 8 8 9 9 10 12 10 9 7 6 5 3 4 4 4 5 4 2 2 1 4 2 3 3 3 3 1 4 4 3 1 2 1 2 3 3 3 4 2 3 3 2 3 3 4 5 5 3 3 3 3 3 4 5 5
14 12 12 12 12 11 9 9 8 9 9 8 8 10 9 7 6 5 4 4 4 4 5 5 4 3 3 3 3 3 2 4 4 2 3 5 5 3 2 1 2 4 2 3 3 3 3 2 2 3 1 2 5 4 5 4 3 4 1 4 5 6
13 11 11 12 12 13 12 12 10 9 9 9 8 9 8 8 7 5 5 5 5 6 6 5 5 5 4 3 3 3 3 3 5 3 2 3 4 6 4 1 1 2 3 3 3 3 2 3 2 2 2 1 0 4 3 4 2 4 3 3 3 4
12 11 11 12 13 14 13 12 11 10 8 8 8 8 7 7 7 6 5 5 5 6 6 5 4 5 4 3 4 3 3 4 3 3 3 3 3 4 7 4 2 3 1 2 4 3 3 4 3 3 3 3 4 4 3 4 2 2 2 2 3 2
10 10 8 10 11 12 12 10 12 11 9 8 6 7 7 6 6 6 5 5 5 6 6 5 5 5 3 4 4 3 3 3 3 3 3 3 3 3 2 4 5 2 1 3 2 3 3 3 3 2 2 1 2 4 3 3 2 2 2 4 3 2
9 8 6 6 7 10 11 11 11 11 9 8 8 8 8 8 7 6 5 5 5 6 6 5 6 4 3 4 4 4 3 3 1 2 3 3 3 5 3 1 5 4 4 5 6 4 3 3 3 3 3 3 3 4 3 2 3 3 3 3 3 2
Wind_Direction
145 144 142 140 143 140 139 139 136 136 140 140 139 141 142 142 142 151 156 157 153 153 155 151 156 153 146 145 152 140 149 150 152 147 151 154 145 142 133 131 143 143 149 151 152 155 184 227 269 287 299 312 319 316 286 90 90 91 96 93 100 106
147 148 149 160 148 144 149 152 144 144 146 144 142 145 147 152 155 155 161 159 169 170 157 161 168 154 153 149 147 148 156 154 155 149 153 150 148 147 145 141 146 162 164 163 156 159 176 222 268 282 292 305 303 286 283 95 106 97 98 97 101 110
103 146 157 153 141 147 153 153 151 153 151 151 156 156 160 160 157 162 164 174 181 152 172 161 156 160 150 156 150 154 156 158 154 157 144 147 145 158 162 156 168 180 181 190 183 208 174 167 221 259 280 288 268 268 28 93 86 102 99 105 97 122
147 162 156 156 140 152 157 158 158 161 157 160 165 169 167 170 166 166 171 145 83 139 148 171 162 166 150 150 147 155 156 156 159 161 156 149 155 175 176 216 224 210 191 211 214 215 166 144 179 181 234 259 258 305 37 64 101 97 107 110 115 121
151 158 162 158 154 158 161 158 161 160 161 164 171 171 163 155 148 132 143 126 147 127 227 142 134 131 145 145 152 158 160 166 167 168 173 175 178 175 183 197 228 259 243 231 245 129 250 154 179 181 206 236 297 52 33 52 79 86 89 91 113 121
156 166 163 165 170 158 152 159 160 157 161 164 167 147 132 104 107 135 151 138 115 130 97 155 142 146 148 160 161 169 175 171 179 178 189 189 185 182 200 210 184 196 236 237 275 304 243 189 149 139 239 347 53 61 87 348 84 89 91 100 96 105
159 162 165 176 168 157 157 155 146 159 157 157 138 129 133 128 133 143 125 125 120 119 144 3 169 157 161 172 172 171 182 182 180 185 200 187 190 160 211 218 174 191 213 226 223 225 213 219 172 170 199 132 43 79 134 52 98 104 103 100 103 107
163 159 163 166 169 165 153 154 156 159 130 135 136 140 141 131 145 150 133 114 108 113 79 72 308 178 160 184 183 183 179 192 188 190 197 221 165 171 209 161 211 204 215 221 215 186 216 220 154 231 69 55 66 22 25 354 74 111 112 112 116 129
160 159 156 162 179 169 159 153 142 137 138 149 140 146 147 145 149 142 126 134 151 142 140 326 270 266 158 184 196 190 191 188 203 195 187 208 151 145 189 186 197 220 222 222 269 211 198 205 169 121 87 77 112 104 54 337 64 106 120 130 129 131
157 153 162 158 191 176 165 140 131 135 136 143 136 147 137 140 136 147 144 165 161 166 164 197 312 325 353 250 198 184 160 176 224 243 106 84 100 153 190 189 187 198 218 226 243 322 50 266 210 129 88 124 149 170 126 344 1 116 127 121 117 128
152 160 167 160 179 213 170 133 114 133 135 141 142 143 144 135 134 148 154 167 172 157 152 78 1 345 39 311 284 192 199 186 189 132 151 150 138 205 134 267 162 128 105 217 115 344 283 315 30 57 91 105 163 174 79 130 284 110 115 112 120 135
160 166 169 157 170 185 164 135 116 131 143 143 144 145 130 131 136 140 149 158 166 151 157 141 82 261 76 20 285 244 161 115 88 97 101 85 104 225 163 205 70 261 286 222 149 221 241 149 81 101 109 119 157 108 93 225 165 50 117 118 124 122
168 165 168 168 165 168 162 135 128 132 139 144 139 130 125 133 137 134 129 153 189 163 139 94 255 179 119 205 245 183 81 67 50 67 100 178 179 152 59 191 176 150 226 138 177 234 226 101 70 92 122 144 169 136 111 214 74 65 105 123 125 128
175 172 164 162 164 168 158 135 133 136 135 135 128 122 122 129 131 133 143 156 177 147 105 85 290 28 56 317 350 349 39 40 316 351 319 195 194 160 187 181 192 179 247 226 190 254 87 111 96 97 101 118 312 87 133 142 88 85 102 114 129 128
179 161 150 170 171 188 148 126 127 135 138 135 128 126 136 138 141 130 131 150 147 100 79 84 44 51 35 173 196 230 182 170 207 188 234 257 218 168 199 203 188 200 168 141 316 115 293 79 95 107 109 133 203 122 124 99 107 114 101 102 101 100
166 149 176 166 121 83 246 138 132 140 141 134 123 127 131 130 128 121 141 131 158 131 100 63 93 101 216 223 200 210 191 195 243 193 282 236 258 191 203 101 293 98 189 123 237 185 203 68 94 102 105 168 124 100 110 105 116 105 113 119 110 106
165 157 156 145 136 186 193 149 134 134 134 108 112 122 129 131 129 142 146 157 163 132 112 108 179 135 209 214 205 186 181 198 202 183 291 283 215 192 197 139 226 150 106 163 106 205 141 122 85 87 126 170 85 111 97 122 119 114 88 86 102 97
152 141 151 146 156 196 171 138 128 124 115 108 113 128 132 133 134 133 141 160 178 97 86 207 156 175 224 212 204 193 121 216 218 119 262 273 256 179 211 126 144 315 134 46 41 134 89 70 89 108 108 115 112 108 117 127 121 120 127 114 94 108
139 138 150 143 154 174 145 139 127 125 124 120 126 113 135 128 139 142 154 165 163 125 165 187 154 197 222 207 190 174 138 213 218 186 218 251 278 187 100 86 41 175 59 118 111 57 85 91 86 96 101 83 67 94 101 134 136 115 107 111 98 101
136 149 150 143 162 178 156 130 134 134 137 122 128 125 125 109 100 139 145 145 133 111 161 157 162 183 252 203 178 200 174 203 193 142 235 149 238 178 125 123 171 224 131 104 110 106 94 101 107 96 107 74 83 90 87 92 103 104 107 115 104 109
134 130 136 146 165 161 150 164 162 148 128 113 107 128 94 52 103 83 164 167 155 125 231 171 168 182 222 206 186 195 181 198 196 183 221 178 237 161 137 146 189 208 151 149 145 122 107 103 112 116 105 103 106 90 80 84 93 91 89 70 67 71
127 148 158 140 147 166 173 53 79 78 81 98 121 73 72 121 135 164 203 184 128 138 208 214 235 236 250 191 198 192 198 194 180 146 220 194 147 122 162 159 170 143 90 89 60 84 96 109 96 131 136 103 77 65 46 59 80 89 89 83 64 66
135 142 137 141 153 140 80 75 69 71 161 123 125 144 152 255 174 191 203 170 123 118 181 200 190 227 244 270 195 179 193 172 171 138 177 148 154 144 178 154 138 147 118 101 89 64 65 38 118 124 114 127 136 130 95 47 21 57 70 85 113 119
139 144 145 133 125 91 74 74 109 157 100 76 120 123 119 203 181 193 171 196 155 130 165 163 199 243 177 263 278 170 213 149 179 159 149 157 131 112 71 58 178 29 162 149 138 94 88 93 120 143 107 67 86 91 120 116 94 43 36 30 53 59
137 132 124 126 106 90 81 78 79 72 77 94 85 120 166 153 176 197 178 188 187 174 178 162 171 205 209 198 218 173 169 152 156 181 150 152 144 139 166 161 169 245 196 124 113 135 106 118 117 54 117 134 116 74 132 112 134 108 97 70 43 40
140 128 126 117 108 111 123 123 127 134 135 125 146 153 197 146 216 202 201 170 158 196 208 204 205 198 188 169 187 183 157 164 158 167 151 153 161 156 165 154 182 209 119 68 122 127 122 60 97 104 87 69 39 125 141 148 157 118 98 107 135 125
168 132 119 123 127 134 147 155 168 158 148 138 126 244 160 156 187 184 214 178 194 188 208 216 248 172 136 114 123 163 169 161 156 154 155 164 161 155 163 184 170 183 148 124 107 120 132 136 139 159 119 114 94 97 137 147 136 130 122 138 136 176
170 132 138 144 146 152 147 158 168 167 148 146 169 190 175 155 137 167 173 210 197 223 216 244 234 152 134 149 180 133 153 178 156 161 161 150 151 174 191 178 173 147 92 124 144 137 134 170 182 120 125 141 140 150 127 81 121 140 128 134 130 170
150 129 121 139 143 155 158 162 151 152 156 157 147 161 173 130 151 188 187 190 214 222 211 213 172 160 158 156 154 171 158 153 122 153 158 141 154 178 126 120 122 115 114 96 77 70 99 140 80 112 132 139 127 118 113 120 151 170 125 132 129 155
171 153 155 157 159 160 161 161 164 177 159 156 148 160 168 145 181 204 189 196 197 190 154 151 141 177 184 147 161 157 160 137 142 167 103 154 156 147 132 154 154 113 108 110 91 85 94 100 99 121 157 107 98 114 79 66 88 109 87 114 153 160
175 153 155 168 170 160 164 172 177 185 171 161 158 155 161 152 170 191 189 183 166 151 130 137 162 165 186 136 142 149 144 132 154 156 160 121 61 88 134 131 145 128 119 114 121 102 95 112 116 123 89 71 70 82 130 142 155 181 166 145 139 147
165 165 161 155 164 161 167 176 176 176 184 174 159 156 163 155 163 174 180 159 148 140 136 145 130 131 141 110 103 121 131 133 112 120 103 123 128 104 106 94 111 93 113 113 121 138 138 142 156 118 103 78 104 125 152 144 162 147 167 142 144 140
172 168 164 156 162 160 166 176 172 174 179 175 162 154 151 151 157 161 161 158 158 164 143 149 145 125 105 118 111 101 116 119 112 155 139 142 146 137 114 151 145 126 124 135 140 156 135 126 122 97 121 130 150 185 160 148 150 156 167 119 140 149
172 167 156 159 160 157 163 172 172 174 176 171 162 155 155 150 150 151 163 176 178 159 142 140 147 141 137 150 137 158 159 148 152 142 130 112 126 141 104 23 110 125 146 138 142 152 148 132 140 130 130 121 26 105 121 121 137 123 152 139 142 136
168 171 169 164 162 162 164 168 169 175 173 171 163 160 159 152 149 162 180 186 162 129 121 128 128 121 143 146 112 114 91 78 77 116 124 135 112 117 133 153 104 105 178 150 152 127 147 153 156 166 141 148 149 144 128 108 106 119 111 99 116 173
173 177 175 166 165 157 163 166 169 168 166 167 162 156 149 145 155 167 190 166 143 133 133 133 125 119 142 112 121 100 109 97 96 116 139 129 134 117 114 134 130 101 82 117 133 162 129 146 136 129 132 104 106 113 114 120 136 176 166 151 157 219
173 169 175 178 179 158 159 166 170 167 167 159 165 165 156 160 166 186 189 144 138 132 126 128 123 126 136 121 143 158 124 99 84 79 89 104 127 111 142 139 113 139 182 144 185 144 149 134 141 150 151 164 139 110 108 146 178 182 161 137 196 179